Friday, July 01, 2016
02:38 UTC
  |  Log In   |  Register Free
Airport Search:

Smithville Municipal Airport
(0A3)

Smithville Municipal Airport Diagram
No Airport Diagram Available

FAA data valid effective May 26 2016 - Jul 21 2016 (unless otherwise noted).

 
 
 
 
 
 
 
 
 
 
 
 
 
 
Current Aviation Weather for 0A3

Weather Summary


Current weather conditions are not available for 0A3 - The nearest NOAA weather station is at SRB, (14.2 nm NE from 0A3)

The most recent METAR observation for 0A3 was updated at: 13:15 UTC
METAR for 0A3 is not available. Closest METAR is for KRNC 17.3 nm NE
KRNC  (17.3 nm NE)   (most recent observation was updated at 10:21 UTC)
010215Z AUTO 00000KT 10SM CLR 20/17 A3001 RMK

KMQY  (34.6 nm SE)   (most recent observation was updated at 10:15 UTC)
010156Z 00000KT 10SM CLR 23/16 A2999 RMK AO2 T02330161 SLP160

TAF for 0A3 is not available.
GlobalAir.com is loading additional information.
 Current Weather at MQY
81.0 F° (27.2 C°)

East winds at 4.6 mph
Pressure:
29.98 in
Humidity:
47%
Wind:
East at 4.6 mph
Dew Point:
59.0 F° (15.0 C°)
Visibility:
10.00 mi
0A3 NOAA Radar




Find All Airport Services Find A Hotel Find A Rental Car Find A Golf Course Find A Restaurant $100 Hamburger



Airport Weather Forecast for 0A3

Translated METAR for KSRB (0215 UTC)
METAR:
KSRB 010215Z AUTO 00000KT 10SM CLR 18/16 A3001 RMK
Conditions at:
KSRB (Upper Cumberland Rgnl, TN) observed 0215 UTC 30 June 2016
Temperature:
18°C (64.4°F)
Dewpoint:
16°C (60.8°F) [RH = 88.1]
Pressure:
30.01 inches Hg (1016.3 mb)
Winds:
from the N (000 degrees) at 0 mph (0 knots: 0 m/s)
Visibility:
10 mile(s)
Ceiling:
at least 12,000 feet AGL
Clouds:
Clear below 12,000 feet AGL
Remarks:
site is un-manned

Translated TAF for TAF for 0A3 is not available. Refer to local area forecast.
FBO's on the Field
FBO Company Facility Photos Services Transportation Aviation Fuel Prices: Prices include tax
Catering Weather Repair Courtesy Rental Type 100LL JetA JetA+ MOGAS 8087
 
Smithville Municipal Airport

This FBO has not yet been rated
FS:Shell
Last Updated: Jun-14
Login to update fuel prices
SS:
Contact Smithville Municipal AirportMore FBO Information
 
Add another FBO Facility Photos Catering Weather Repair Courtesy Rental Type 100LL JetA JetA+ MOGAS 8087
Services Transportation Aviation Fuel Prices: Prices include tax


model-print
model-print
model-print
model-print